DELTA 1 DEB, 5971

Orbit data source: Space-Track

DELTA 1 DEB, 5971 is space debris in SSO originally from a launch on Thu, 26 Jan 1967 UTC launched from the Air Force Western Test Range (AFWTR). Debris objects in space refer to the collection of defunct objects orbiting the Earth. Examples of debris include non-operational satellites, rocket bodies, and fragments generated from explosions, collisions, or faulty payload assembly.

Loading next visibility...
Identifier
5971, 1967-006E
Orbit
SSO
Country
Flag of USUS
Related business
Manufacturer
Unknown
Mission
Spacecraft
Bus & Motor
Unknown
Mass
Unknown
Launch date (UTC)
1967-01-26 (59 years ago)
Launch vehicle
Unknown
Launch site
Air Force Western Test Range (AFWTR)
Object type
Payload
Rocket body
Debris
Shape & HBR
Unknown
Radar Cross Section
Small (<0.1 m²)

Expand to show TLE details & history
Last TLE update: 17 hours ago

TLE from 17 hours ago
0 DELTA 1 DEB
1 05971U 67006E   25258.26854866 -.00000021  00000-0  12693-3 0  9996
2 05971 101.9186 185.6030 0112800 155.9797 358.4074 12.73471058726091
Epoch: 2025-09-15T06:26Z
TLE epoch observation values (Epoch: 2025-09-15T06:26:42.604Z)
Latitude
25.08785°
Longitude
-79.90759°
Altitude
1,283.235 km
Speed
7.257 km/s
True Right ascension
00h 44m 58s
True Declination
24° 57' 54"
Sunlit
Object was in full shadow at epoch
Visualization orbit readout
Latitude
Unknown
Longitude
Unknown
Altitude
Unknown
Speed
Unknown
Apparent Right ascension
Unknown
Apparent Declination
Unknown
Sunlit
N/A
Visualization observer readout
Local Sidereal Time
16:15:11
Azimuth
Unknown
Elevation
Unknown
Doppler factor
Unknown
Orbital elements
Apogee altitude
1,452.705 km
Perigee altitude
1,278.012 km
Semi-major axis
7,743.495 km
Eccentricity
0.01128
Inclination
101.9186°
RAAN
185.603°
Arg. of periapsis
155.9797°
True anomaly
358.37096°
Mean anomaly
358.4074°
Eccentric anomaly
358.38923°
Mean motion
3.18521 °/min
Orbital period
113.02 mins
BSTAR
0.00012693
Loading maneuver chart data...
Computing Atmospheric mass density...
Loading historical data...
Loading historical data...
Loading historical data...
Loading historical data...
Loading historical data...
Loading historical data...
Loading historical data...
Other satellites on launch #6 in the year 1967 (1967-01-26 UTC)

Documentation

Showing up to 5 results
|